sat.trackr.live / text

‹ back to catalog

ECHOSTAR 16

NORAD 39008 · 2012-065A

PAYLOAD ACTIVE UNKNOWN

§ Identity

Operator
Country
US
Launch date
2012-11-20
Launch site
TYMSC
Launch vehicle
Mass (kg)
RCS (m²)
3.79

Purposes: comms

External: N2YO · Heavens-Above · Gunter

§ Orbital elements

Epoch: 2026-09-19T09:50:10.455936Z

Period
1,436.08 min
Inclination
0.0226°
Eccentricity
0.0002373
Mean motion
1.00272976 rev/d
Perigee alt
35,776.3 km
Apogee alt
35,796.3 km
Semi-major
42,164.4 km
B*
0.0000e+0
RAAN
154.2192°
Arg perigee
26.5103°
Mean anomaly
263.6361°
Rev number
5,058

§ Raw data

ECHOSTAR 161 39008U 12065A   26262.40984324  .00000000  00000+0  00000+0 0  99942 39008   0.0226 154.2192 0002373  26.5103 263.6361  1.00272976 50587

JSON: /api/v1/satellites/39008 · /tle

For live sub-satellite position, see the globe view (requires WebGL).

§ Visibility from observer

Set your observer location to see the next 7 days of passes ≥ 10°. The values pass through the URL so the page stays shareable.

No JS? Fill the form by hand. The geolocation button needs JavaScript.